Weather History for Goodland, KS

Change the Weather History Date:

Sunday, December 1, 2013

  Actual Average Record
Temperature  
Mean Temperature 41 °F 32 °F  
Max Temperature 60 °F 45 °F 73 °F (1917)
Min Temperature 22 °F 20 °F -5 °F (1985)
Degree Days  
Heating Degree Days 24 33  
Month to date heating degree days 24 33  
Since 1 July heating degree days 1297 1352  
Cooling Degree Days 0 0  
Month to date cooling degree days 0 0  
Year to date cooling degree days 1181 941  
Moisture  
Dew Point 20 °F    
Average Humidity 52    
Maximum Humidity 81    
Minimum Humidity 23    
Precipitation  
Precipitation 0.00 in 0.02 in 0.28 in (1933)
Month to date precipitation 0.00 0.02  
Year to date precipitation 16.69 19.22  
Snow  
Snow 0.00 in 0.20 in - ()
Month to date snowfall 0.0 0.2  
Since 1 July snowfall 4.3 7.4  
Snow Depth 0.00 in    
Sea Level Pressure  
Sea Level Pressure 30.03 in    
Wind  
Wind Speed 8 mph (West)    
Max Wind Speed 14 mph    
Max Gust Speed 18 mph    
Visibility 10 miles    
Events      
T = Trace of Precipitation, MM = Missing Value Source: NWS Daily Summary

Daily Weather History Graph

Daily Weather History Graph

Search for Another Location

Airport:

Trip Planner

Search our weather history database for the weather conditions in past years. The results will help you decide how hot, cold, wet, or windy it might be!

Date:

Astronomy

Dec. 01, 2013 Rise Set
Actual Time 6:47 AM MST 4:23 PM MST
Civil Twilight 6:18 AM MST 4:53 PM MST
Nautical Twilight 5:44 AM MST 5:26 PM MST
Astronomical Twilight 5:12 AM MST 5:59 PM MST
Moon 5:08 AM MST (12/1) 3:35 PM MST (12/1)
Length of Visible Light 10h 35m
Length of Day
9h 35m
Waning Crescent, 2% of the Moon is Illuminated
Dec 1
Waning Crescent
Dec 2
New
Dec 9
First Quarter
Dec 17
Full
Dec 25
Last Quarter

Hourly Weather History & Observations

Time (MST) Temp. Windchill Dew Point Humidity Pressure Visibility Wind Dir Wind Speed Gust Speed Precip Events Conditions
12:53 AM 28.0 °F 21.7 °F 18.0 °F 66% 30.12 in 10.0 mi West 5.8 mph - N/A   Clear
1:53 AM 26.1 °F 18.4 °F 18.0 °F 71% 30.12 in 10.0 mi West 6.9 mph - N/A   Clear
2:53 AM 26.1 °F 17.6 °F 18.0 °F 71% 30.12 in 10.0 mi West 8.1 mph - N/A   Clear
3:53 AM 25.0 °F 17.1 °F 17.1 °F 72% 30.11 in 10.0 mi West 6.9 mph - N/A   Clear
4:53 AM 24.1 °F 16.0 °F 17.1 °F 75% 30.15 in 10.0 mi West 6.9 mph - N/A   Clear
5:53 AM 23.0 °F 13.9 °F 17.1 °F 78% 30.15 in 10.0 mi West 8.1 mph - N/A   Clear
6:53 AM 23.0 °F 13.9 °F 16.0 °F 74% 30.18 in 10.0 mi WSW 8.1 mph - N/A   Clear
7:53 AM 30.0 °F 23.2 °F 19.0 °F 64% 30.17 in 10.0 mi West 6.9 mph - N/A   Clear
8:53 AM 39.9 °F 33.9 °F 23.0 °F 51% 30.15 in 10.0 mi West 9.2 mph - N/A   Clear
9:53 AM 46.0 °F 41.4 °F 21.9 °F 39% 30.15 in 10.0 mi WNW 9.2 mph - N/A   Clear
10:53 AM 52.0 °F - 21.9 °F 31% 30.11 in 10.0 mi NW 6.9 mph - N/A   Clear
11:53 AM 55.9 °F - 21.9 °F 27% 30.06 in 10.0 mi Calm Calm - N/A   Clear
12:53 PM 57.9 °F - 21.9 °F 25% 30.02 in 10.0 mi NNW 8.1 mph - N/A   Clear
1:53 PM 59.0 °F - 21.9 °F 24% 29.98 in 10.0 mi NNW 9.2 mph - N/A   Clear
2:53 PM 57.9 °F - 23.0 °F 26% 29.98 in 10.0 mi NNW 11.5 mph - N/A   Clear
3:53 PM 55.0 °F - 23.0 °F 29% 29.97 in 10.0 mi Calm Calm - N/A   Clear
4:53 PM 39.9 °F 36.7 °F 19.9 °F 45% 30.00 in 10.0 mi SW 4.6 mph - N/A   Clear
5:53 PM 42.1 °F 37.7 °F 21.9 °F 45% 29.99 in 10.0 mi SW 6.9 mph - N/A   Clear
6:53 PM 41.0 °F 35.8 °F 21.0 °F 45% 29.95 in 10.0 mi SW 8.1 mph - N/A   Clear
7:53 PM 41.0 °F 35.2 °F 19.9 °F 43% 29.91 in 10.0 mi SW 9.2 mph - N/A   Clear
8:53 PM 42.1 °F 36.1 °F 21.0 °F 43% 29.87 in 10.0 mi SW 10.4 mph - N/A   Clear
9:53 PM 41.0 °F 34.7 °F 21.9 °F 47% 29.84 in 10.0 mi SW 10.4 mph - N/A   Clear
10:53 PM 41.0 °F 34.7 °F 21.0 °F 45% 29.82 in 10.0 mi SW 10.4 mph - N/A   Clear
11:53 PM 34.0 °F 26.6 °F 19.9 °F 56% 29.83 in 10.0 mi West 9.2 mph - N/A   Partly Cloudy